| time (UTC) | temp F | wind direction | speed MPH | gust MPH | rain 1hr in | rain 24hr in | rain mn in | humidity % | barometer mb |
| 20260505124314 | 48 | 318 | 1.0 | 2.0 | 0.00 | 0.00 | 0.00 | 99 | 1016.2 |
| 20260505123810 | 48 | 305 | 1.0 | 2.0 | 0.00 | 0.00 | 0.00 | 99 | 1015.9 |
| 20260505123307 | 47 | 1 | 1.0 | 2.0 | 0.00 | 0.00 | 0.00 | 99 | 1015.9 |
| 20260505122803 | 46 | 353 | 0.0 | 1.0 | 0.00 | 0.00 | 0.00 | 99 | 1016.2 |
| 20260505122301 | 46 | 24 | 0.0 | 1.0 | 0.00 | 0.00 | 0.00 | 99 | 1015.9 |
| 20260505121756 | 45 | 326 | 0.0 | 1.0 | 0.00 | 0.00 | 0.00 | 99 | 1015.9 |
| 20260505121253 | 45 | 338 | 0.0 | 1.0 | 0.00 | 0.00 | 0.00 | 99 | 1015.9 |
| 20260505120750 | 44 | 317 | 1.0 | 2.0 | 0.00 | 0.00 | 0.00 | 99 | 1016.0 |
| 20260505120246 | 43 | 293 | 0.0 | 0.0 | 0.00 | 0.00 | 0.00 | 99 | 1016.2 |
| 20260505115745 | 43 | 53 | 0.0 | 1.0 | 0.00 | 0.00 | 0.00 | 98 | 1016.0 |
| 20260505115243 | 43 | 293 | 1.0 | 2.0 | 0.00 | 0.00 | 0.00 | 98 | 1016.0 |
| 20260505114740 | 42 | 305 | 1.0 | 2.0 | 0.00 | 0.00 | 0.00 | 98 | 1016.0 |
| 20260505114236 | 42 | 298 | 1.0 | 2.0 | 0.00 | 0.00 | 0.00 | 98 | 1015.9 |
| 20260505113733 | 42 | 304 | 0.0 | 2.0 | 0.00 | 0.00 | 0.00 | 98 | 1015.8 |
| 20260505113229 | 42 | 286 | 2.0 | 2.0 | 0.00 | 0.00 | 0.00 | 98 | 1015.9 |
| 20260505112725 | 41 | 64 | 1.0 | 1.0 | 0.00 | 0.00 | 0.00 | 98 | 1015.7 |
| 20260505112223 | 42 | 286 | 1.0 | 4.0 | 0.00 | 0.00 | 0.00 | 98 | 1015.5 |
| 20260505111723 | 41 | 240 | 0.0 | 1.0 | 0.00 | 0.00 | 0.00 | 98 | 1015.5 |
| 20260505111219 | 41 | 278 | 3.0 | 3.0 | 0.00 | 0.00 | 0.00 | 98 | 1015.5 |
| 20260505110715 | 41 | 307 | 2.0 | 2.0 | 0.00 | 0.00 | 0.00 | 98 | 1015.6 |
| 20260505110213 | 41 | 280 | 3.0 | 3.0 | 0.00 | 0.00 | 0.00 | 98 | 1015.4 |
| 20260505102148 | 42 | 274 | 2.0 | 2.0 | 0.00 | 0.00 | 0.00 | 98 | 1015.2 |
| 20260505101647 | 42 | 39 | 0.0 | 3.0 | 0.00 | 0.00 | 0.00 | 98 | 1015.2 |
| 20260505101143 | 42 | 279 | 2.0 | 2.0 | 0.00 | 0.00 | 0.00 | 98 | 1015.3 |
| 20260505100639 | 42 | 27 | 2.0 | 2.0 | 0.00 | 0.00 | 0.00 | 98 | 1015.3 |
| 20260505100136 | 42 | 285 | 2.0 | 2.0 | 0.00 | 0.00 | 0.00 | 98 | 1015.3 |
| 20260505095632 | 42 | 315 | 0.0 | 3.0 | 0.00 | 0.00 | 0.00 | 98 | 1015.4 |
| 20260505095129 | 42 | 305 | 2.0 | 2.0 | 0.00 | 0.00 | 0.00 | 98 | 1015.2 |
| 20260505094626 | 42 | 292 | 4.0 | 4.0 | 0.00 | 0.00 | 0.00 | 98 | 1015.3 |
| 20260505094122 | 42 | 65 | 0.0 | 2.0 | 0.00 | 0.00 | 0.00 | 98 | 1015.4 |
| 20260505093618 | 42 | 29 | 0.0 | 2.0 | 0.00 | 0.00 | 0.00 | 98 | 1015.4 |
| 20260505093115 | 42 | 308 | 0.0 | 3.0 | 0.00 | 0.00 | 0.00 | 98 | 1015.3 |
| 20260505092612 | 42 | 279 | 2.0 | 3.0 | 0.00 | 0.00 | 0.00 | 98 | 1015.2 |
| 20260505092112 | 42 | 253 | 2.0 | 3.0 | 0.00 | 0.00 | 0.00 | 98 | 1015.3 |
| 20260505091608 | 42 | 329 | 0.0 | 2.0 | 0.00 | 0.00 | 0.00 | 98 | 1015.4 |
| 20260505091106 | 42 | 297 | 2.0 | 2.0 | 0.00 | 0.00 | 0.00 | 97 | 1015.2 |
| 20260505090604 | 43 | 279 | 2.0 | 2.0 | 0.00 | 0.00 | 0.00 | 98 | 1015.4 |
| 20260505085559 | 43 | 306 | 1.0 | 1.0 | 0.00 | 0.00 | 0.00 | 97 | 1015.5 |
| 20260505085057 | 43 | 275 | 1.0 | 3.0 | 0.00 | 0.00 | 0.00 | 97 | 1015.6 |
| 20260505084555 | 43 | 302 | 0.0 | 2.0 | 0.00 | 0.00 | 0.00 | 97 | 1015.5 |
| 20260505084052 | 43 | 300 | 2.0 | 2.0 | 0.00 | 0.00 | 0.00 | 97 | 1015.6 |
| 20260505083549 | 43 | 261 | 1.0 | 2.0 | 0.00 | 0.00 | 0.00 | 97 | 1015.4 |
| 20260505083046 | 43 | 298 | 1.0 | 2.0 | 0.00 | 0.00 | 0.00 | 97 | 1015.5 |
| 20260505082542 | 43 | 273 | 1.0 | 2.0 | 0.00 | 0.00 | 0.00 | 97 | 1015.5 |
| 20260505082039 | 43 | 305 | 1.0 | 2.0 | 0.00 | 0.00 | 0.00 | 97 | 1015.4 |
| 20260505081535 | 43 | 289 | 2.0 | 2.0 | 0.00 | 0.00 | 0.00 | 97 | 1015.4 |
| 20260505081032 | 43 | 276 | 1.0 | 2.0 | 0.00 | 0.00 | 0.00 | 97 | 1015.4 |
| 20260505080528 | 43 | 309 | 1.0 | 2.0 | 0.00 | 0.00 | 0.00 | 97 | 1015.5 |
| 20260505080025 | 43 | 303 | 1.0 | 2.0 | 0.00 | 0.00 | 0.00 | 97 | 1015.4 |
| 20260505075521 | 43 | 274 | 1.0 | 2.0 | 0.00 | 0.00 | 0.00 | 97 | 1015.3 |
| 20260505075018 | 44 | 298 | 0.0 | 2.0 | 0.00 | 0.00 | 0.00 | 97 | 1015.4 |
| 20260505074515 | 44 | 315 | 2.0 | 2.0 | 0.00 | 0.00 | 0.00 | 97 | 1015.5 |
| 20260505074013 | 44 | 319 | 2.0 | 3.0 | 0.00 | 0.00 | 0.00 | 97 | 1015.5 |
| 20260505073510 | 44 | 247 | 2.0 | 2.0 | 0.00 | 0.00 | 0.00 | 97 | 1015.5 |
| 20260505073008 | 44 | 286 | 2.0 | 2.0 | 0.00 | 0.00 | 0.00 | 97 | 1015.7 |
| 20260505072503 | 44 | 298 | 2.0 | 2.0 | 0.00 | 0.00 | 0.00 | 97 | 1015.5 |
| 20260505071959 | 44 | 274 | 1.0 | 2.0 | 0.00 | 0.00 | 0.00 | 96 | 1015.5 |
| 20260505071455 | 44 | 299 | 1.0 | 2.0 | 0.00 | 0.00 | 0.00 | 96 | 1015.4 |
| 20260505070954 | 44 | 306 | 1.0 | 2.0 | 0.00 | 0.00 | 0.00 | 96 | 1015.6 |
| 20260505070450 | 44 | 292 | 2.0 | 3.0 | 0.00 | 0.00 | 0.00 | 96 | 1015.4 |
| 20260505065946 | 44 | 303 | 2.0 | 3.0 | 0.00 | 0.00 | 0.00 | 96 | 1015.3 |
| 20260505065443 | 44 | 280 | 2.0 | 2.0 | 0.00 | 0.00 | 0.00 | 96 | 1015.3 |
| 20260505064939 | 44 | 297 | 2.0 | 3.0 | 0.00 | 0.00 | 0.00 | 96 | 1015.5 |
| 20260505064436 | 44 | 282 | 2.0 | 2.0 | 0.00 | 0.00 | 0.00 | 96 | 1015.4 |
| 20260505063935 | 45 | 282 | 1.0 | 2.0 | 0.00 | 0.00 | 0.00 | 96 | 1015.3 |
| 20260505063431 | 45 | 284 | 2.0 | 3.0 | 0.00 | 0.00 | 0.00 | 96 | 1015.3 |
| 20260505062927 | 45 | 296 | 1.0 | 2.0 | 0.00 | 0.00 | 0.00 | 96 | 1015.1 |
| 20260505062425 | 45 | 282 | 0.0 | 2.0 | 0.00 | 0.00 | 0.00 | 96 | 1015.4 |
| 20260505061921 | 45 | 279 | 2.0 | 2.0 | 0.00 | 0.00 | 0.00 | 96 | 1015.6 |
| 20260505061420 | 45 | 324 | 1.0 | 2.0 | 0.00 | 0.00 | 0.00 | 96 | 1015.6 |
| 20260505060917 | 45 | 299 | 1.0 | 2.0 | 0.00 | 0.00 | 0.00 | 96 | 1015.6 |
| 20260505060414 | 45 | 293 | 3.0 | 3.0 | 0.00 | 0.00 | 0.00 | 96 | 1015.6 |
| 20260505055910 | 45 | 281 | 2.0 | 2.0 | 0.00 | 0.00 | 0.00 | 95 | 1015.7 |
| 20260505055406 | 46 | 305 | 1.0 | 2.0 | 0.00 | 0.00 | 0.00 | 95 | 1015.7 |
| 20260505054903 | 46 | 335 | 1.0 | 2.0 | 0.00 | 0.00 | 0.00 | 96 | 1015.7 |
| 20260505054400 | 46 | 315 | 0.0 | 2.0 | 0.00 | 0.00 | 0.00 | 95 | 1015.7 |
| 20260505053858 | 46 | 279 | 2.0 | 2.0 | 0.00 | 0.00 | 0.00 | 95 | 1015.6 |
| 20260505053355 | 46 | 298 | 2.0 | 2.0 | 0.00 | 0.00 | 0.00 | 95 | 1015.9 |
| 20260505052852 | 46 | 278 | 2.0 | 2.0 | 0.00 | 0.00 | 0.00 | 95 | 1015.8 |
| 20260505052349 | 46 | 296 | 1.0 | 2.0 | 0.00 | 0.00 | 0.00 | 95 | 1015.8 |
| 20260505051846 | 46 | 354 | 0.0 | 2.0 | 0.00 | 0.00 | 0.00 | 95 | 1015.9 |
| 20260505051343 | 46 | 307 | 2.0 | 2.0 | 0.00 | 0.00 | 0.00 | 94 | 1015.8 |
| 20260505050841 | 46 | 288 | 2.0 | 2.0 | 0.00 | 0.00 | 0.00 | 94 | 1015.7 |
| 20260505050340 | 46 | 305 | 1.0 | 2.0 | 0.00 | 0.00 | 0.00 | 94 | 1015.5 |
| 20260505041306 | 48 | 290 | 1.0 | 2.0 | 0.00 | 0.00 | 0.00 | 92 | 1015.4 |
| 20260505040804 | 48 | 292 | 2.0 | 2.0 | 0.00 | 0.00 | 0.00 | 92 | 1015.7 |
| 20260505040301 | 48 | 329 | 0.0 | 2.0 | 0.00 | 0.00 | 0.00 | 92 | 1015.6 |
| 20260505035758 | 48 | 313 | 0.0 | 2.0 | 0.00 | 0.00 | 0.00 | 92 | 1015.7 |
| 20260505035253 | 49 | 281 | 0.0 | 1.0 | 0.00 | 0.00 | 0.00 | 91 | 1015.8 |
| 20260505034751 | 49 | 326 | 0.0 | 2.0 | 0.00 | 0.00 | 0.00 | 91 | 1015.6 |
| 20260505034248 | 49 | 299 | 0.0 | 2.0 | 0.00 | 0.00 | 0.00 | 91 | 1015.6 |
| 20260505033744 | 49 | 17 | 0.0 | 2.0 | 0.00 | 0.00 | 0.00 | 91 | 1015.7 |
| 20260505033242 | 49 | 289 | 2.0 | 2.0 | 0.00 | 0.00 | 0.00 | 90 | 1015.7 |
| 20260505032740 | 49 | 312 | 0.0 | 2.0 | 0.00 | 0.00 | 0.00 | 90 | 1015.8 |
| 20260505032235 | 50 | 307 | 2.0 | 2.0 | 0.00 | 0.00 | 0.00 | 90 | 1015.9 |
| 20260505031733 | 50 | 269 | 0.0 | 2.0 | 0.00 | 0.00 | 0.00 | 90 | 1015.8 |
| 20260505031229 | 50 | 302 | 1.0 | 3.0 | 0.00 | 0.00 | 0.00 | 89 | 1015.7 |
| 20260505030726 | 50 | 296 | 2.0 | 2.0 | 0.00 | 0.00 | 0.00 | 89 | 1015.8 |
| 20260505030222 | 50 | 298 | 1.0 | 3.0 | 0.00 | 0.00 | 0.00 | 89 | 1015.9 |
| 20260505025718 | 50 | 309 | 2.0 | 2.0 | 0.00 | 0.00 | 0.00 | 89 | 1015.8 |
| 20260505025217 | 50 | 296 | 1.0 | 2.0 | 0.00 | 0.00 | 0.00 | 88 | 1015.7 |
| 20260505024714 | 51 | 286 | 0.0 | 2.0 | 0.00 | 0.00 | 0.00 | 88 | 1015.6 |
| 20260505024211 | 51 | 269 | 0.0 | 2.0 | 0.00 | 0.00 | 0.00 | 87 | 1015.7 |
| 20260505023709 | 51 | 308 | 2.0 | 2.0 | 0.00 | 0.00 | 0.00 | 87 | 1015.8 |
| 20260505023206 | 51 | 321 | 1.0 | 2.0 | 0.00 | 0.00 | 0.00 | 86 | 1015.7 |
| 20260505022703 | 51 | 326 | 0.0 | 2.0 | 0.00 | 0.00 | 0.00 | 86 | 1015.7 |
| 20260505022200 | 52 | 315 | 2.0 | 2.0 | 0.00 | 0.00 | 0.00 | 86 | 1015.7 |
| 20260505021656 | 52 | 290 | 2.0 | 2.0 | 0.00 | 0.00 | 0.00 | 85 | 1015.6 |
| 20260505021154 | 52 | 284 | 0.0 | 2.0 | 0.00 | 0.00 | 0.00 | 85 | 1015.7 |
| 20260505020649 | 52 | 295 | 2.0 | 2.0 | 0.00 | 0.00 | 0.00 | 84 | 1015.5 |
| 20260505020145 | 53 | 321 | 0.0 | 3.0 | 0.00 | 0.00 | 0.00 | 83 | 1015.5 |
| 20260505015643 | 53 | 314 | 2.0 | 3.0 | 0.00 | 0.00 | 0.00 | 83 | 1015.5 |
| 20260505015139 | 53 | 307 | 2.0 | 2.0 | 0.00 | 0.00 | 0.00 | 81 | 1015.3 |
| 20260505014636 | 53 | 295 | 0.0 | 2.0 | 0.00 | 0.00 | 0.00 | 80 | 1015.4 |
| 20260505014133 | 54 | 291 | 1.0 | 2.0 | 0.00 | 0.00 | 0.00 | 80 | 1015.4 |
| 20260505013631 | 54 | 289 | 2.0 | 2.0 | 0.00 | 0.00 | 0.00 | 79 | 1015.4 |
| 20260505013127 | 54 | 310 | 0.0 | 2.0 | 0.00 | 0.00 | 0.00 | 78 | 1015.1 |
| 20260505012626 | 55 | 306 | 2.0 | 2.0 | 0.00 | 0.00 | 0.00 | 77 | 1015.3 |
| 20260505012122 | 55 | 303 | 0.0 | 2.0 | 0.00 | 0.00 | 0.00 | 76 | 1015.3 |
| 20260505011618 | 55 | 300 | 2.0 | 2.0 | 0.00 | 0.00 | 0.00 | 75 | 1015.1 |
| 20260505011115 | 56 | 303 | 2.0 | 2.0 | 0.00 | 0.00 | 0.00 | 72 | 1015.2 |
| 20260505010610 | 56 | 297 | 2.0 | 2.0 | 0.00 | 0.00 | 0.00 | 72 | 1015.2 |
| 20260505010108 | 57 | 313 | 2.0 | 2.0 | 0.00 | 0.00 | 0.00 | 71 | 1015.1 |
| 20260505005604 | 57 | 296 | 1.0 | 2.0 | 0.00 | 0.00 | 0.00 | 70 | 1015.1 |
| 20260505005101 | 58 | 302 | 1.0 | 2.0 | 0.00 | 0.00 | 0.00 | 67 | 1015.0 |
| 20260505004558 | 59 | 296 | 2.0 | 2.0 | 0.00 | 0.00 | 0.00 | 65 | 1015.2 |
| 20260505004055 | 59 | 292 | 1.0 | 2.0 | 0.00 | 0.00 | 0.00 | 64 | 1015.1 |
| 20260505003552 | 60 | 298 | 2.0 | 2.0 | 0.00 | 0.00 | 0.00 | 65 | 1014.9 |
| 20260505003049 | 61 | 310 | 2.0 | 3.0 | 0.00 | 0.00 | 0.00 | 61 | 1015.0 |
| 20260505002549 | 62 | 299 | 2.0 | 2.0 | 0.00 | 0.00 | 0.00 | 59 | 1014.9 |
| 20260505002049 | 62 | 286 | 1.0 | 2.0 | 0.00 | 0.00 | 0.00 | 59 | 1014.9 |
| 20260505001546 | 63 | 293 | 2.0 | 2.0 | 0.00 | 0.00 | 0.00 | 59 | 1014.9 |
| 20260505001043 | 64 | 269 | 0.0 | 1.0 | 0.00 | 0.00 | 0.00 | 58 | 1014.7 |
| 20260505000540 | 64 | 217 | 0.0 | 2.0 | 0.00 | 0.00 | 0.00 | 63 | 1014.9 |
| 20260505000038 | 65 | 310 | 2.0 | 3.0 | 0.00 | 0.00 | 0.00 | 55 | 1014.9 |
| 20260504235534 | 66 | 53 | 1.0 | 1.0 | 0.00 | 0.00 | 0.00 | 55 | 1014.8 |
| 20260504235031 | 66 | 211 | 0.0 | 3.0 | 0.00 | 0.00 | 0.00 | 56 | 1014.9 |
| 20260504234528 | 68 | 300 | 3.0 | 3.0 | 0.00 | 0.00 | 0.00 | 52 | 1014.9 |
| 20260504234025 | 70 | 218 | 1.0 | 2.0 | 0.00 | 0.00 | 0.00 | 54 | 1014.9 |
| 20260504233520 | 71 | 251 | 6.0 | 9.0 | 0.00 | 0.00 | 0.00 | 40 | 1014.8 |
| 20260504233017 | 71 | 283 | 5.0 | 5.0 | 0.00 | 0.00 | 0.00 | 39 | 1014.9 |
| 20260504232514 | 72 | 280 | 2.0 | 5.0 | 0.00 | 0.00 | 0.00 | 41 | 1015.0 |
| 20260504232012 | 72 | 220 | 1.0 | 3.0 | 0.00 | 0.00 | 0.00 | 42 | 1014.8 |
| 20260504231508 | 72 | 282 | 2.0 | 8.0 | 0.00 | 0.00 | 0.00 | 44 | 1014.8 |
| 20260504231004 | 71 | 274 | 2.0 | 4.0 | 0.00 | 0.00 | 0.00 | 46 | 1014.7 |
| 20260504230501 | 71 | 194 | 0.0 | 6.0 | 0.00 | 0.00 | 0.00 | 43 | 1014.6 |
| 20260504230000 | 71 | 278 | 2.0 | 6.0 | 0.00 | 0.00 | 0.00 | 45 | 1014.6 |
| 20260504225456 | 72 | 311 | 3.0 | 6.0 | 0.00 | 0.00 | 0.00 | 43 | 1014.5 |
| 20260504224954 | 72 | 346 | 1.0 | 4.0 | 0.00 | 0.00 | 0.00 | 43 | 1014.7 |
| 20260504224450 | 71 | 307 | 1.0 | 2.0 | 0.00 | 0.00 | 0.00 | 43 | 1014.5 |
| 20260504223947 | 72 | 307 | 2.0 | 10.0 | 0.00 | 0.00 | 0.00 | 43 | 1014.6 |
| 20260504223443 | 73 | 297 | 2.0 | 5.0 | 0.00 | 0.00 | 0.00 | 41 | 1014.7 |
| 20260504222939 | 73 | 267 | 7.0 | 8.0 | 0.00 | 0.00 | 0.00 | 42 | 1014.7 |
| 20260504222437 | 73 | 339 | 2.0 | 3.0 | 0.00 | 0.00 | 0.00 | 41 | 1015.0 |
| 20260504221934 | 73 | 302 | 3.0 | 4.0 | 0.00 | 0.00 | 0.00 | 43 | 1014.8 |
| 20260504221431 | 72 | 299 | 3.0 | 5.0 | 0.00 | 0.00 | 0.00 | 42 | 1014.9 |
| 20260504220928 | 72 | 318 | 5.0 | 6.0 | 0.00 | 0.00 | 0.00 | 43 | 1014.7 |
| 20260504220425 | 72 | 318 | 6.0 | 6.0 | 0.00 | 0.00 | 0.00 | 44 | 1014.6 |
| 20260504215922 | 72 | 271 | 5.0 | 7.0 | 0.00 | 0.00 | 0.00 | 42 | 1014.8 |
| 20260504215418 | 72 | 279 | 4.0 | 6.0 | 0.00 | 0.00 | 0.00 | 43 | 1014.7 |
| 20260504214915 | 72 | 304 | 7.0 | 9.0 | 0.00 | 0.00 | 0.00 | 43 | 1014.6 |
| 20260504214412 | 72 | 310 | 6.0 | 6.0 | 0.00 | 0.00 | 0.00 | 42 | 1014.8 |
| 20260504213908 | 73 | 319 | 9.0 | 11.0 | 0.00 | 0.00 | 0.00 | 41 | 1014.6 |
| 20260504213404 | 73 | 275 | 5.0 | 9.0 | 0.00 | 0.00 | 0.00 | 40 | 1014.8 |
| 20260504212902 | 73 | 234 | 6.0 | 6.0 | 0.00 | 0.00 | 0.00 | 39 | 1014.8 |
| 20260504212357 | 73 | 319 | 5.0 | 11.0 | 0.00 | 0.00 | 0.00 | 39 | 1014.6 |
| 20260504211855 | 73 | 278 | 3.0 | 6.0 | 0.00 | 0.00 | 0.00 | 41 | 1014.7 |
| 20260504211351 | 72 | 299 | 1.0 | 6.0 | 0.00 | 0.00 | 0.00 | 38 | 1014.7 |
| 20260504210849 | 72 | 313 | 5.0 | 5.0 | 0.00 | 0.00 | 0.00 | 40 | 1014.9 |
| 20260504210346 | 72 | 303 | 4.0 | 8.0 | 0.00 | 0.00 | 0.00 | 42 | 1014.7 |
| 20260504205843 | 72 | 299 | 5.0 | 10.0 | 0.00 | 0.00 | 0.00 | 38 | 1014.8 |
| 20260504205341 | 73 | 284 | 7.0 | 8.0 | 0.00 | 0.00 | 0.00 | 42 | 1014.7 |
| 20260504204838 | 72 | 268 | 3.0 | 3.0 | 0.00 | 0.00 | 0.00 | 40 | 1014.7 |
| 20260504204337 | 72 | 261 | 3.0 | 6.0 | 0.00 | 0.00 | 0.00 | 39 | 1014.8 |
| 20260504203836 | 72 | 319 | 3.0 | 12.0 | 0.00 | 0.00 | 0.00 | 40 | 1014.9 |
| 20260504203332 | 72 | 288 | 9.0 | 9.0 | 0.00 | 0.00 | 0.00 | 42 | 1014.9 |
| 20260504202828 | 72 | 291 | 5.0 | 8.0 | 0.00 | 0.00 | 0.00 | 38 | 1014.8 |
| 20260504202326 | 72 | 262 | 8.0 | 9.0 | 0.00 | 0.00 | 0.00 | 37 | 1014.9 |
| 20260504201822 | 73 | 278 | 2.0 | 6.0 | 0.00 | 0.00 | 0.00 | 38 | 1014.8 |
| 20260504201319 | 73 | 326 | 5.0 | 8.0 | 0.00 | 0.00 | 0.00 | 36 | 1014.9 |
| 20260504200817 | 73 | 254 | 4.0 | 6.0 | 0.00 | 0.00 | 0.00 | 34 | 1015.1 |
| 20260504200313 | 72 | 304 | 6.0 | 10.0 | 0.00 | 0.00 | 0.00 | 36 | 1015.2 |
| 20260504195809 | 72 | 325 | 6.0 | 9.0 | 0.00 | 0.00 | 0.00 | 36 | 1015.4 |
| 20260504195305 | 73 | 262 | 5.0 | 10.0 | 0.00 | 0.00 | 0.00 | 39 | 1015.3 |
| 20260504194802 | 73 | 265 | 2.0 | 6.0 | 0.00 | 0.00 | 0.00 | 38 | 1015.3 |
| 20260504194259 | 73 | 290 | 6.0 | 12.0 | 0.00 | 0.00 | 0.00 | 37 | 1015.4 |
| 20260504193755 | 73 | 258 | 2.0 | 15.0 | 0.00 | 0.00 | 0.00 | 35 | 1015.5 |
| 20260504193252 | 73 | 253 | 5.0 | 6.0 | 0.00 | 0.00 | 0.00 | 35 | 1015.2 |
| 20260504192750 | 73 | 303 | 4.0 | 9.0 | 0.00 | 0.00 | 0.00 | 34 | 1015.4 |
| 20260504192248 | 73 | 295 | 3.0 | 5.0 | 0.00 | 0.00 | 0.00 | 39 | 1015.4 |
| 20260504191747 | 73 | 269 | 3.0 | 10.0 | 0.00 | 0.00 | 0.00 | 36 | 1015.5 |
| 20260504191243 | 72 | 260 | 4.0 | 12.0 | 0.00 | 0.00 | 0.00 | 31 | 1015.5 |
| 20260504190739 | 72 | 262 | 7.0 | 12.0 | 0.00 | 0.00 | 0.00 | 33 | 1015.5 |
| 20260504190235 | 72 | 261 | 7.0 | 14.0 | 0.00 | 0.00 | 0.00 | 36 | 1015.5 |
| 20260504185732 | 73 | 314 | 4.0 | 11.0 | 0.00 | 0.00 | 0.00 | 31 | 1015.7 |
| 20260504185229 | 73 | 293 | 6.0 | 6.0 | 0.00 | 0.00 | 0.00 | 36 | 1015.6 |
| 20260504184725 | 73 | 286 | 8.0 | 9.0 | 0.00 | 0.00 | 0.00 | 38 | 1015.7 |
| 20260504184221 | 72 | 304 | 3.0 | 6.0 | 0.00 | 0.00 | 0.00 | 37 | 1015.8 |
| 20260504183717 | 72 | 246 | 6.0 | 7.0 | 0.00 | 0.00 | 0.00 | 37 | 1015.9 |
| 20260504183214 | 72 | 242 | 6.0 | 7.0 | 0.00 | 0.00 | 0.00 | 38 | 1016.0 |
| 20260504182712 | 72 | 275 | 5.0 | 9.0 | 0.00 | 0.00 | 0.00 | 40 | 1015.9 |
| 20260504182209 | 72 | 276 | 2.0 | 5.0 | 0.00 | 0.00 | 0.00 | 36 | 1016.0 |
| 20260504181707 | 71 | 275 | 6.0 | 8.0 | 0.00 | 0.00 | 0.00 | 40 | 1016.2 |
| 20260504181204 | 71 | 248 | 3.0 | 6.0 | 0.00 | 0.00 | 0.00 | 41 | 1016.0 |
| 20260504180703 | 71 | 309 | 6.0 | 6.0 | 0.00 | 0.00 | 0.00 | 42 | 1016.2 |
| 20260504180201 | 71 | 320 | 7.0 | 8.0 | 0.00 | 0.00 | 0.00 | 45 | 1016.5 |
| 20260504175658 | 70 | 254 | 5.0 | 6.0 | 0.00 | 0.00 | 0.00 | 44 | 1016.5 |
| 20260504175155 | 70 | 318 | 5.0 | 13.0 | 0.00 | 0.00 | 0.00 | 43 | 1016.7 |
| 20260504174653 | 70 | 265 | 2.0 | 8.0 | 0.00 | 0.00 | 0.00 | 44 | 1016.7 |
| 20260504174149 | 71 | 261 | 8.0 | 11.0 | 0.00 | 0.00 | 0.00 | 44 | 1016.6 |
| 20260504173646 | 70 | 264 | 2.0 | 9.0 | 0.00 | 0.00 | 0.00 | 41 | 1016.5 |
| 20260504173144 | 71 | 243 | 6.0 | 11.0 | 0.00 | 0.00 | 0.00 | 44 | 1016.8 |
| 20260504172640 | 70 | 333 | 2.0 | 5.0 | 0.00 | 0.00 | 0.00 | 44 | 1016.9 |
| 20260504172137 | 71 | 276 | 6.0 | 8.0 | 0.00 | 0.00 | 0.00 | 43 | 1016.8 |
| 20260504171633 | 71 | 267 | 3.0 | 9.0 | 0.00 | 0.00 | 0.00 | 43 | 1016.8 |
| 20260504171131 | 70 | 317 | 4.0 | 9.0 | 0.00 | 0.00 | 0.00 | 43 | 1016.9 |
| 20260504170627 | 70 | 279 | 4.0 | 8.0 | 0.00 | 0.00 | 0.00 | 45 | 1016.9 |
| 20260504170125 | 70 | 259 | 5.0 | 6.0 | 0.00 | 0.00 | 0.00 | 43 | 1017.1 |
| 20260504151010 | 65 | 315 | 5.0 | 6.0 | 0.00 | 0.00 | 0.00 | 49 | 1018.2 |
| 20260504150508 | 64 | 53 | 5.0 | 9.0 | 0.00 | 0.00 | 0.00 | 47 | 1018.3 |
| 20260504140933 | 62 | 326 | 0.0 | 6.0 | 0.00 | 0.00 | 0.00 | 52 | 1018.2 |
| 20260504140430 | 61 | 294 | 2.0 | 6.0 | 0.00 | 0.00 | 0.00 | 51 | 1018.4 |
| 20260504130354 | 42 | 74 | 1.0 | 1.0 | 0.00 | 0.00 | 0.00 | 99 | 1018.7 |